TimeEST,TemperatureF,Dew PointF,Humidity,Sea Level PressureIn,VisibilityMPH,Wind Direction,Wind SpeedMPH,Gust SpeedMPH,PrecipitationIn,Events,Conditions,WindDirDegrees,DateUTC
12:51 AM,36.0,24.1,62,29.65,6.0,East,17.3,23.0,0.00,Snow,Light Snow,90,2013-03-06 05:51:00
1:06 AM,35.6,26.6,70,29.63,1.8,East,20.7,26.5,0.00,Snow,Light Snow,100,2013-03-06 06:06:00
1:25 AM,33.8,28.4,81,29.64,0.8,East,13.8,-,0.01,Snow,Light Snow,90,2013-03-06 06:25:00
1:49 AM,32.0,28.4,87,29.65,0.5,East,15.0,20.7,0.04,Fog-Snow,Snow,90,2013-03-06 06:49:00
1:51 AM,32.0,28.9,88,29.68,0.5,East,16.1,21.9,0.04,Fog-Snow,Snow,90,2013-03-06 06:51:00
2:51 AM,32.0,30.0,92,29.68,0.5,ENE,17.3,-,0.06,Fog-Snow,Snow,70,2013-03-06 07:51:00
3:51 AM,32.0,30.0,92,29.70,1.0,ENE,13.8,23.0,0.03,Snow,Light Snow,60,2013-03-06 08:51:00
4:28 AM,32.0,30.2,93,29.69,2.0,East,15.0,21.9,0.01,Snow,Light Snow,80,2013-03-06 09:28:00
4:51 AM,33.1,28.9,85,29.74,3.0,ENE,13.8,-,0.01,Snow,Light Snow,70,2013-03-06 09:51:00
5:51 AM,33.1,30.0,89,29.78,5.0,East,15.0,-,0.00,Snow,Light Snow,80,2013-03-06 10:51:00
6:15 AM,33.8,28.4,81,29.77,5.0,East,13.8,-,0.00,Snow,Light Snow,80,2013-03-06 11:15:00
6:51 AM,34.0,30.0,85,29.83,5.0,East,11.5,-,0.00,,Overcast,80,2013-03-06 11:51:00
7:51 AM,34.0,30.0,85,29.87,4.0,East,11.5,-,N/A,,Overcast,80,2013-03-06 12:51:00
8:10 AM,33.8,30.2,87,29.86,4.0,East,9.2,-,N/A,,Overcast,80,2013-03-06 13:10:00
8:51 AM,34.0,30.0,85,29.92,4.0,ENE,12.7,-,N/A,,Overcast,60,2013-03-06 13:51:00
9:51 AM,35.1,28.9,78,29.95,5.0,East,12.7,-,N/A,,Haze,80,2013-03-06 14:51:00
10:33 AM,37.4,28.4,70,29.94,7.0,ENE,13.8,-,N/A,,Mostly Cloudy,60,2013-03-06 15:33:00
10:51 AM,37.9,28.9,70,29.98,7.0,ENE,10.4,-,N/A,,Mostly Cloudy,60,2013-03-06 15:51:00
11:51 AM,39.9,28.9,65,30.01,9.0,East,8.1,-,N/A,,Mostly Cloudy,80,2013-03-06 16:51:00
12:29 PM,41.0,28.4,61,29.99,10.0,Variable,5.8,-,N/A,,Mostly Cloudy,0,2013-03-06 17:29:00
12:51 PM,43.0,28.9,58,30.01,10.0,Calm,Calm,-,N/A,,Mostly Cloudy,0,2013-03-06 17:51:00
1:17 PM,41.0,28.4,61,29.99,10.0,ENE,5.8,-,N/A,,Mostly Cloudy,70,2013-03-06 18:17:00
1:51 PM,42.1,28.0,58,30.02,10.0,North,8.1,-,N/A,,Overcast,360,2013-03-06 18:51:00
2:51 PM,42.1,28.0,58,30.03,10.0,NNW,9.2,-,N/A,,Overcast,340,2013-03-06 19:51:00
3:51 PM,43.0,28.0,56,30.05,10.0,North,4.6,-,N/A,,Mostly Cloudy,360,2013-03-06 20:51:00
4:51 PM,42.1,28.0,58,30.06,10.0,NW,10.4,-,N/A,,Overcast,310,2013-03-06 21:51:00
5:51 PM,39.9,28.0,63,30.08,10.0,NNW,8.1,-,N/A,,Overcast,340,2013-03-06 22:51:00
6:51 PM,39.0,28.0,65,30.11,10.0,North,4.6,-,N/A,,Overcast,360,2013-03-06 23:51:00
7:51 PM,37.9,27.0,65,30.13,10.0,NNE,8.1,-,N/A,,Overcast,30,2013-03-07 00:51:00
8:51 PM,35.1,27.0,72,30.15,10.0,North,11.5,-,N/A,,Mostly Cloudy,10,2013-03-07 01:51:00
9:51 PM,30.9,25.0,79,30.16,10.0,NNE,5.8,-,N/A,,Partly Cloudy,30,2013-03-07 02:51:00
10:51 PM,28.0,24.1,85,30.17,10.0,NNW,5.8,-,N/A,,Partly Cloudy,330,2013-03-07 03:51:00
11:51 PM,32.0,28.0,85,30.17,7.0,NW,6.9,-,N/A,,Overcast,320,2013-03-07 04:51:00